This demonstration page uses our WeatherBlox Daily Observations layout. Learn more.

40.92945, -100.16068

Hourly Observations for April 5, 2018

Temp ( °F °C ) Dew Point ( °F °C ) Humidity (%) Winds ( mph kmh ) Pressure ( in mb ) Visibility ( mi km ) Precip ( " mm )
12:15 am 00:15 Cloudy 38 3.4 26 -3.5 61 61 E 3 6 30.06 1018 10 16.0934 0 0
12:35 am 00:35 Cloudy 38 3.4 27 -2.8 64 64 NE 8 13 30.06 1018 10 16.0934 0 0
12:55 am 00:55 Cloudy 39 4.1 26 -3.1 60 60 NNE 6 9 30.03 1017 10 16.0934 0 0
1:15 am 01:15 Cloudy 40 4.5 26 -3.4 57 57 NE 8 13 30.03 1017 10 16.0934 0 0
1:35 am 01:35 Cloudy 39 4 26 -3.2 60 60 NNE 10 17 30.03 1017 10 16.0934 0 0
1:55 am 01:55 Cloudy 39 3.8 25 -3.7 58 58 NE 10 17 30.03 1017 10 16.0934 0 0
2:15 am 02:15 Mostly Cloudy 37 2.6 25 -4 62 62 NNE 7 11 30.06 1018 10 16.0934 0 0
2:35 am 02:35 Partly Cloudy 34 1 24 -4.5 67 67 NE 5 7 30.06 1018 10 16.0934 0 0
2:55 am 02:55 Clear 33 0.5 24 -4.6 69 69 NE 5 7 30.06 1018 10 16.0934 0 0
3:15 am 03:15 Clear 31 -0.5 23 -5 72 72 NNE 6 9 30.09 1019 10 16.0934 0 0
3:35 am 03:35 Clear 31 -0.6 23 -4.8 74 74 N 5 7 30.09 1019 10 16.0934 0 0
3:55 am 03:55 Clear 28 -2 23 -5 80 80 NNE 3 6 30.09 1019 10 16.0934 0 0
4:15 am 04:15 Clear 28 -2.2 23 -5 81 81 N 7 11 30.09 1019 10 16.0934 0 0
4:35 am 04:35 Clear 28 -2.1 23 -4.8 82 82 N 9 15 30.09 1019 10 16.0934 0 0
4:55 am 04:55 Clear 29 -1.6 24 -4.7 80 80 N 6 9 30.09 1019 10 16.0934 0 0
5:15 am 05:15 Clear 28 -2.4 23 -5.1 82 82 Calm 30.09 1019 10 16.0934 0 0
5:35 am 05:35 Clear 28 -2.3 23 -5.2 81 81 N 5 7 30.15 1021 10 16.0934 0 0
5:55 am 05:55 Clear 27 -2.8 23 -5.2 84 84 N 6 9 30.15 1021 10 16.0934 0 0
6:15 am 06:15 Clear 29 -1.7 24 -4.6 81 81 N 9 15 30.12 1020 10 16.0934 0 0
6:35 am 06:35 Clear 28 -2 24 -4.7 82 82 N 7 11 30.12 1020 10 16.0934 0 0
6:55 am 06:55 Clear 28 -2 24 -4.7 82 82 N 8 13 30.12 1020 10 16.0934 0 0
7:15 am 07:15 Clear 29 -1.9 24 -4.7 81 81 N 6 9 30.12 1020 10 16.0934 0 0
7:35 am 07:35 Sunny 29 -1.8 24 -4.6 81 81 N 6 9 30.12 1020 10 16.0934 0 0
7:55 am 07:55 Sunny 29 -1.5 24 -4.2 82 82 N 6 9 30.12 1020 10 16.0934 0 0
8:15 am 08:15 Sunny 32 -0.2 26 -3.4 79 79 N 8 13 30.12 1020 10 16.0934 0 0
8:35 am 08:35 Sunny 32 0.1 26 -3.2 79 79 N 5 7 30.12 1020 10 16.0934 0 0
8:55 am 08:55 Sunny 34 1 27 -3 75 75 N 6 9 30.09 1019 10 16.0934 0 0
9:15 am 09:15 Sunny 36 2 27 -3 70 70 NNE 7 11 30.09 1019 10 16.0934 0 0
9:35 am 09:35 Sunny 38 3.5 27 -2.9 63 63 NE 8 13 30.09 1019 10 16.0934 0 0
9:55 am 09:55 Sunny 40 4.6 27 -2.7 59 59 NNE 8 13 30.06 1018 10 16.0934 0 0
10:15 am 10:15 Sunny 42 5.5 27 -3 55 55 NNE 7 11 30.06 1018 10 16.0934 0 0
10:35 am 10:35 Sunny 44 6.9 27 -2.7 51 51 NNE 5 7 30.03 1017 10 16.0934 0 0
10:55 am 10:55 Sunny 47 8.6 27 -2.8 45 45 NNE 7 11 30.03 1017 10 16.0934 0 0
11:15 am 11:15 Sunny 49 9.6 27 -3 41 41 NE 9 15 30.03 1017 10 16.0934 0 0
11:35 am 11:35 Sunny 51 10.4 26 -3.4 38 38 ENE 9 15 30 1016 10 16.0934 0 0
11:55 am 11:55 Sunny 52 11.1 27 -2.9 38 38 NE 8 13 30 1016 10 16.0934 0 0
12:15 pm 12:15 Sunny 53 11.9 27 -3 36 36 NE 8 13 30 1016 10 16.0934 0 0
12:35 pm 12:35 Sunny 54 12.2 26 -3.3 34 34 NE 9 15 30 1016 10 16.0934 0 0
12:55 pm 12:55 Sunny 55 12.8 27 -2.8 34 34 ENE 9 15 30 1016 10 16.0934 0 0
1:15 pm 13:15 Sunny 56 13.1 27 -2.7 34 34 ENE 6 9 30 1016 10 16.0934 0 0
1:35 pm 13:35 Sunny 56 13.4 28 -2.5 33 33 ENE 10 17 29.94 1014 10 16.0934 0 0
1:55 pm 13:55 Sunny 57 13.7 27 -2.8 32 32 ESE 5 7 29.97 1015 10 16.0934 0 0
2:15 pm 14:15 Sunny 58 14.5 28 -2.4 31 31 N 3 6 29.94 1014 10 16.0934 0 0
2:35 pm 14:35 Sunny 58 14.4 27 -2.6 31 31 Calm 29.94 1014 10 16.0934 0 0
2:55 pm 14:55 Sunny 59 15 27 -2.8 29 29 N 5 7 29.94 1014 10 16.0934 0 0
3:15 pm 15:15 Sunny 60 15.5 28 -2.4 29 29 NNW 6 9 29.94 1014 10 16.0934 0 0
3:35 pm 15:35 Sunny 61 16 28 -2.1 29 29 N 8 13 29.94 1014 10 16.0934 0 0
3:55 pm 15:55 Sunny 60 15.7 28 -2 30 30 E 6 9 29.94 1014 10 16.0934 0 0
4:15 pm 16:15 Sunny 60 15.5 28 -2.2 30 30 Calm 29.94 1014 10 16.0934 0 0
4:35 pm 16:35 Sunny 62 16.4 29 -1.4 30 30 N 7 11 29.91 1013 10 16.0934 0 0
4:55 pm 16:55 Sunny 60 15.7 29 -1.4 31 31 ENE 12 19 29.91 1013 10 16.0934 0 0
5:15 pm 17:15 Sunny 61 15.9 30 -1.2 31 31 NNE 8 13 29.88 1012 10 16.0934 0 0
5:35 pm 17:35 Sunny 60 15.5 30 -1.3 32 32 ENE 8 13 29.94 1014 10 16.0934 0 0
5:55 pm 17:55 Sunny 59 15.2 30 -1.3 32 32 NNE 9 15 29.94 1014 10 16.0934 0 0
6:15 pm 18:15 Sunny 59 14.9 30 -1.3 33 33 NNE 8 13 29.94 1014 10 16.0934 0 0
6:35 pm 18:35 Sunny 58 14.5 30 -1.1 34 34 NE 10 17 29.94 1014 10 16.0934 0 0
6:55 pm 18:55 Partly Cloudy 57 14 31 -0.8 36 36 ENE 10 17 29.94 1014 10 16.0934 0 0
7:15 pm 19:15 Sunny 55 12.6 31 -0.5 41 41 NE 16 26 29.97 1015 10 16.0934 0 0
7:35 pm 19:35 Mostly Cloudy 52 11.3 31 -0.5 44 44 NE 18 30 29.97 1015 10 16.0934 0 0
7:55 pm 19:55 Cloudy 51 10.7 31 -0.4 47 47 ENE 15 24 29.97 1015 10 16.0934 0 0
8:15 pm 20:15 Cloudy 50 10.1 32 -0.1 49 49 ENE 14 22 29.97 1015 10 16.0934 0 0
8:35 pm 20:35 Cloudy 50 9.8 32 0 51 51 NE 16 26 30.03 1017 10 16.0934 0 0
8:55 pm 20:55 Cloudy 49 9.3 32 0.1 53 53 NE 13 20 30.03 1017 10 16.0934 0 0
9:15 pm 21:15 Cloudy 48 8.7 32 0.1 55 55 ENE 15 24 30.03 1017 10 16.0934 0 0
9:35 pm 21:35 Cloudy 47 8.2 32 0.1 57 57 NE 15 24 30.03 1017 10 16.0934 0 0
9:55 pm 21:55 Cloudy 46 7.8 32 0.1 59 59 NE 12 19 30.06 1018 10 16.0934 0 0
10:15 pm 22:15 Cloudy 46 7.5 32 0.1 60 60 ENE 10 17 30.06 1018 10 16.0934 0 0
10:35 pm 22:35 Cloudy 45 7.2 32 0 61 61 NE 9 15 30.06 1018 10 16.0934 0 0
10:55 pm 22:55 Mostly Cloudy 45 7 32 0 61 61 NE 9 15 30.09 1019 10 16.0934 0 0
11:15 pm 23:15 Mostly Cloudy 44 6.5 32 0 64 64 NE 9 15 30.09 1019 10 16.0934 0 0
11:35 pm 23:35 Partly Cloudy 43 6.3 32 -0.1 64 64 ENE 15 24 30.09 1019 10 16.0934 0 0
11:55 pm 23:55 Mostly Cloudy 43 6.1 32 -0.2 64 64 NE 15 24 30.09 1019 10 16.0934 0 0

Powered by AerisWeather